ATLAS 5 CENTAUR DEB, 52972

Orbit data source: Space-Track

ATLAS 5 CENTAUR DEB, 52972 is space debris in HEO originally from a launch on Wed, 17 Oct 2018 UTC launched from the Air Force Eastern Test Range (AFETR). Debris objects in space refer to the collection of defunct objects orbiting the Earth. Examples of debris include non-operational satellites, rocket bodies, and fragments generated from explosions, collisions, or faulty payload assembly.

Loading next visibility...
Identifier
52972, 2018-079GW
Orbit
HEO
Country
Flag of USUS
Related business
Flag of USUnited Launch Alliance/Lockheed Martin (US)
Manufacturer
ULA Decatur
Mission
Spacecraft
Bus & Motor
Unknown
Mass
Unknown
Launch date (UTC)
2018-10-17 (8 years ago)
Launch vehicle
Unknown
Launch site
Air Force Eastern Test Range (AFETR)
Object type
Payload
Rocket body
Debris
Shape & HBR
Unknown shape, 1.1 m
Radar Cross Section
RCS unknown

Expand to show TLE details & history
Last TLE update: 3 days ago

TLE from 3 days ago
0 ATLAS 5 CENTAUR DEB
1 52972U 18079GW  26170.37297710 -.00000127  00000-0  00000-0 0  9993
2 52972  13.2284  16.9171 4483401 359.3751   0.2675  1.93882373 34448
Epoch: 2026-06-19T08:57Z
TLE epoch observation values (Epoch: 2026-06-19T08:57:05.221Z)
Latitude
0.00003°
Longitude
-24.95496°
Altitude
8,631.336 km
Speed
6.2 km/s
True Right ascension
01h 07m 40s
True Declination
0° 00' 00"
Sunlit
Object was in daylight at epoch
Visualization orbit readout
Latitude
Unknown
Longitude
Unknown
Altitude
Unknown
Speed
Unknown
Apparent Right ascension
Unknown
Apparent Declination
Unknown
Sunlit
N/A
Visualization observer readout
Local Sidereal Time
21:41:19
Azimuth
Unknown
Elevation
Unknown
Doppler factor
Unknown
Orbital elements
Apogee altitude
32,972.088 km
Perigee altitude
8,610.015 km
Semi-major axis
27,169.188 km
Eccentricity
0.44834
Inclination
13.2284°
RAAN
16.9171°
Arg. of periapsis
359.3751°
True anomaly
0.78568°
Mean anomaly
0.2675°
Eccentric anomaly
0.4849°
Mean motion
0.48465 °/min
Orbital period
742.8 mins
BSTAR
0
Loading maneuver chart data...
Computing Atmospheric mass density...

Documentation

Showing up to 5 results
|